sat.trackr.live / text

‹ back to catalog

STARLINK-5410

NORAD 54807 · 2022-175BB

PAYLOAD ACTIVE UNKNOWN

§ Identity

Operator
Country
US
Launch date
2022-12-17
Launch site
AFETR
Launch vehicle
Mass (kg)
RCS (m²)

Purposes: comms

External: N2YO · Heavens-Above · Gunter

§ Orbital elements

Epoch: 2026-09-20T08:40:50.738304Z

Period
93.85 min
Inclination
53.1594°
Eccentricity
0.0001213
Mean motion
15.34392147 rev/d
Perigee alt
461.9 km
Apogee alt
463.6 km
Semi-major
6,840.9 km
B*
3.5786e-5
RAAN
220.1425°
Arg perigee
83.5496°
Mean anomaly
276.5644°
Rev number
20,972

§ Raw data

STARLINK-54101 54807U 22175BB  26263.36169836  .00000833  00000+0  35786-4 0  99982 54807  53.1594 220.1425 0001213  83.5496 276.5644 15.34392147209724

JSON: /api/v1/satellites/54807 · /tle

For live sub-satellite position, see the globe view (requires WebGL).

§ Visibility from observer

Set your observer location to see the next 7 days of passes ≥ 10°. The values pass through the URL so the page stays shareable.

No JS? Fill the form by hand. The geolocation button needs JavaScript.